Regional Weather Roundup
Issued by NWS Charleston, SC

Current Version | Previous Version | Graphics & Text | Print | Product List | Glossary On
Versions: 1 2 3 4 5 6 7 8 9 10 11 12 13 14 15 16 17 18 19 20 21 22 23 24 25 26 27 28 29 30 31 32 33 34 35 36 37 38 39 40 41 42 43 44 45 46 47 48 49 50
000 ASUS42 KCHS 291211 RWRCHS REGIONAL WEATHER ROUNDUP NATIONAL WEATHER SERVICE CHARLESTON SC 700 AM EST THU JAN 29 2015 NOTE: "FAIR" INDICATES FEW OR NO CLOUDS BELOW 12,000 FEET WITH NO SIGNIFICANT WEATHER AND/OR OBSTRUCTIONS TO VISIBILITY. NOT ALL STATIONS ARE QUALITY CONTROLLED BY THE NATIONAL WEATHER SERVICE. USE DATA WITH CAUTION...ESPECIALLY DEWPOINT OBSERVATIONS. SCZ027-030-031-034>040-042>050-291300- ...SOUTHEAST SOUTH CAROLINA... CITY SKY/WX TMP DP RH WIND PRES REMARKS N CHARLESTON PTCLDY 26 24 92 NW5 30.37R WCI 20 6HR MIN TEMP: 26; 6HR MAX TEMP: 32; WATERFRONT PRK N/A 39 N/A N/A N5 N/A WCI 36 MOUNT PLEASANT LGT RAIN N/A N/A N/A CALM 30.36R PINOPOLIS NOT AVBL MONCKS CORNER FAIR 28 27 93 CALM 30.37R SUMMERVILLE FAIR 28 28 100 CALM 30.38R BEAUFORT MCAS PTCLDY 31 29 92 NW3 30.38R 6HR MIN TEMP: 30; 6HR MAX TEMP: 33; BEAUFORT ARPT FAIR 34 34 100 NW3 30.37R HILTON HEAD IS CLEAR 34 32 93 N6 30.38 WCI 29 WALTERBORO SUNNY 27 N/A N/A CALM 30.38R ALLENDALE FAIR 28 27 93 CALM 30.36S ...SOUTHERN MIDLANDS AND PEE DEE... CITY SKY/WX TMP DP RH WIND PRES REMARKS GEORGETOWN NOT AVBL KINGSTREE NOT AVBL ORANGEBURG CLEAR 27 24 89 CALM 30.36S 6HR MIN TEMP: 27; 6HR MAX TEMP: 29; 6HR PCP: TRACE; BARNWELL N/A 28 27 93 CALM 30.37R AIKEN FAIR 28 25 86 CALM 30.36S MANNING FAIR 28 28 100 CALM 30.37R COLUMBIA PTCLDY 26 22 84 CALM 30.34F 6HR MIN TEMP: 25; 6HR MAX TEMP: 30; SUMTER CLEAR 28 22 78 W1 30.34R 6HR MIN TEMP: 25; 6HR MAX TEMP: 29; FLORENCE PTCLDY 25 22 88 CALM 30.36R 6HR MIN TEMP: 25; 6HR MAX TEMP: 29; MYRTLE BEACH CLEAR 27 23 86 NW6 30.37R WCI 20 N MYRTLE BEACH PTCLDY 26 25 96 CALM 30.35R 6HR MIN TEMP: 25; 6HR MAX TEMP: 28; $$ GAZ063-065-086>088-099>101-113>116-118-119-134>141-150-291300- ...SOUTHEAST GEORGIA... CITY SKY/WX TMP DP RH WIND PRES REMARKS SAVANNAH ARPT MOCLDY 30 27 88 CALM 30.38R 6HR MIN TEMP: 29; 6HR MAX TEMP: 33; HUNTER AAF CLEAR 29 28 93 NW5 30.35R WCI 24 6HR MIN TEMP: 29; 6HR MAX TEMP: 34; FORT STEWART CLEAR 28 26 89 CALM 30.36R 6HR MIN TEMP: 28; 6HR MAX TEMP: 30; STATESBORO PTCLDY 28 28 100 CALM 30.36S SYLVANIA MOSUNNY 28 28 100 CALM 30.37S CLAXTON FAIR 28 28 100 CALM 30.37R ...CSRA...CENTRAL AND FAR SOUTHEAST GEORGIA... CITY SKY/WX TMP DP RH WIND PRES REMARKS THOMSON CLEAR 29 28 96 CALM 30.37R AUGUSTA-BUSH PTCLDY 24 23 96 CALM 30.35F 6HR MIN TEMP: 24; 6HR MAX TEMP: 26; AUGUSTA-DANIEL PTCLDY 33 27 78 SE3 30.34S SWAINSBORO FAIR 32 30 93 CALM 30.35F VIDALIA PTCLDY 32 30 93 CALM 30.35F EASTMAN FAIR 29 29 100 CALM 30.38R FOG HAZLEHURST FAIR 32 32 100 CALM 30.34F ALMA PTCLDY 29 28 96 CALM 30.35R 6HR MIN TEMP: 29; 6HR MAX TEMP: 32; WAYCROSS PTCLDY 34 33 97 CALM 30.36R JESUP FAIR 32 32 100 CALM 30.37R BAXLEY FAIR 32 32 100 CALM 30.35S BRUNSWICK CLEAR 34 32 93 CALM 30.36R SAINT SIMONS CLEAR 35 32 88 CALM 30.34R 6HR MIN TEMP: 34; 6HR MAX TEMP: 37; $$ SCZ027-028-034-036>038-045-046-048>050-GAZ119-141-291300- ...LAKE AND SUPPLEMENTAL COASTAL OBSERVATIONS... STATION/POSITION TIME TEMP WIND PRES WAVE SWELL AIR SEA DIR/SP/G HT/PER HT/PER/DIR (UTC) (F) (DEG/KT/KT) (MB) (FT/S) (FT/S/D) UPR LAKE MARION NOT AVBL WINYAH BAY 1045 31 320/ 2 1026.0 LAKE MURRAY 1100 33 CALM 1026.8R ACE BASIN NERRS NOT AVBL FORT PULASKI 1100 44 52 360/ 3/ 4 1027.6R SAPELO ISLAND 1100 37 30/ 3 1027.0R $$ ANZ835-935-AMZ111-154-330-350-352-354-370-450-454-472-291300- ...C-MAN AND BUOY OBSERVATIONS... STATION/POSITION TIME TEMP WIND PRES WAVE SWELL AIR SEA DIR/SP/G HT/PER HT/PER/DIR (UTC) (F) (DEG/KT/KT) (MB) (FT/S) (FT/S/D) BUOY 41004 1150 51 67 60/ 6/ 8 1027.2R 3/ 8 3/ 8 BUOY 41008 1150 51 53 60/ 8/ 10 1026.9R 3/12 2/ 80/12 FOLLY BEACH CMAN 1100 43 340/ 4/ 5 1027.7R CAPERS NEARSHORE 1100 46 50/ 8/ 10 N/A FRIPP NEARSHORE 1100 48 80/ 12/ 14 1026.0R STATION/POSITION TIME TEMP WIND PRES WAVE SWELL AIR SEA DIR/SP/G HT/PER HT/PER/DIR (UTC) (F) (DEG/KT/KT) (MB) (FT/S) (FT/S/D) 5E ST. MARYS GA NOT AVBL FRYING PAN BUOY 1150 47 65 10/ 10/ 14 1027.8R 4/ 6 3/ 70/ 6 BUOY 41025 1150 39 71 350/ 14/ 19 1026.3R 6/ 8 5/ 30/ 8 CAPE LOOKOUT NC 1100 34 20/ 5/ 6 1026.7R BUOY 41002 1150 55 72 350/ 16/ 21 1025.0R 9/ 9 7/ 20/ 9 BUOY 41010 1120 63 75 20/ 14/ 19 1024.1R ST AUGUSTINE FL 1200 49 320/ 6/ 7 1026.9R $$

USA.gov is the U.S. government's official web portal to all federal, state and local government web resources and services.